Theta_e
296 298 297 297 298 297 298 298 298 298 298 298 299 299 300 300 300 299 305 307 307 310 312 313 315 317 320 324 329 329 331 328 327 324 325 325 328 329 336 338 341 340 342 338 337 339 338 339 337 337 353 347 350 352
298 298 296 297 297 297 298 298 299 299 298 298 299 299 299 299 299 299 305 305 305 306 310 308 309 310 311 317 319 326 326 331 330 329 328 331 333 335 341 337 338 343 343 342 348 348 348 347 350 348 346 349 351 350
297 298 296 297 297 297 297 297 297 297 297 298 298 299 299 299 298 298 301 303 304 309 311 313 314 315 313 313 314 316 324 327 329 328 327 329 336 333 341 338 341 342 341 344 341 343 347 345 345 344 344 344 346 344
296 296 296 297 296 297 297 297 297 297 297 297 298 298 299 299 298 298 301 303 304 308 312 315 314 315 314 315 316 316 317 319 323 323 325 326 328 328 332 333 332 335 340 339 340 343 336 342 343 345 344 342 341 339
295 295 296 295 296 297 296 297 297 297 297 297 298 298 299 299 298 299 302 303 304 306 312 313 311 313 314 314 315 316 317 320 321 321 323 323 324 326 326 327 329 328 333 338 336 343 343 343 345 342 342 341 340 337
294 296 295 296 296 297 297 297 297 298 298 298 298 298 298 298 299 302 308 307 307 306 309 314 315 316 316 314 315 316 318 319 320 321 322 323 324 325 325 326 327 331 332 339 339 337 340 338 337 337 339 336 334 334
296 296 296 296 297 297 297 297 298 298 297 295 296 296 297 298 300 305 307 307 306 307 308 314 317 316 315 315 316 316 317 318 319 320 322 322 324 323 322 323 324 328 329 329 333 329 332 329 336 336 336 334 332 332
296 295 294 296 297 297 297 297 296 295 294 296 297 299 302 302 300 305 306 303 306 307 308 314 317 318 317 319 319 316 317 318 319 319 320 322 322 323 324 322 322 325 325 326 325 330 332 327 336 336 335 333 332 331
296 295 294 296 296 297 297 297 295 294 296 298 299 303 305 306 309 309 306 305 306 308 313 314 317 321 318 318 320 321 320 318 317 318 318 319 322 326 323 323 323 323 325 325 325 324 329 326 334 335 334 333 331 330
295 296 295 296 296 296 297 296 294 295 299 300 302 307 312 310 307 306 307 309 310 311 311 314 314 316 316 317 320 323 319 320 319 319 318 320 321 323 322 322 323 325 324 325 326 325 329 335 336 334 333 332 330 329
295 296 296 296 296 296 296 296 294 297 301 303 307 309 307 306 307 310 313 313 314 315 313 314 315 318 316 318 320 320 323 320 321 320 318 319 319 323 324 324 326 323 323 325 324 325 327 332 335 333 332 330 329 328
295 296 296 296 296 295 296 296 296 298 298 299 299 302 306 309 311 313 315 315 315 317 317 317 319 318 316 317 321 321 324 320 322 319 319 319 322 324 318 321 323 324 323 324 324 324 325 327 333 331 330 329 328 327
296 295 296 296 295 295 294 295 295 294 297 303 305 307 309 309 312 313 315 315 318 317 317 318 320 318 320 318 320 322 323 321 321 324 324 320 327 322 322 319 322 323 321 323 323 322 323 330 331 330 329 327 326 325
296 295 295 295 295 295 294 295 294 296 300 307 307 306 309 311 311 314 316 317 316 316 316 315 316 321 322 322 321 323 322 324 325 324 323 332 329 327 329 320 323 322 323 322 323 326 330 330 329 328 327 325 323 321
296 295 294 294 294 295 296 295 294 299 303 305 307 307 310 311 311 311 311 312 314 314 314 315 316 320 321 322 322 322 323 325 326 330 329 329 326 325 330 330 329 324 325 330 330 330 329 328 326 324 321 320 318 317
297 295 295 295 296 296 295 296 298 301 303 304 305 307 310 311 311 311 312 313 313 313 314 317 318 319 318 321 323 323 324 324 324 327 326 325 326 329 331 330 330 329 331 332 328 326 324 322 319 317 316 315 316 317
296 298 297 296 295 295 296 299 302 303 304 305 307 307 307 309 310 311 311 312 312 313 317 316 317 316 317 321 323 325 326 323 323 325 324 325 326 327 328 329 329 329 328 325 323 321 318 316 315 315 314 314 314 313
297 298 297 295 296 300 301 300 303 302 303 304 306 308 309 310 310 311 313 314 313 315 315 316 315 318 320 321 323 322 321 319 319 321 324 325 326 326 327 326 324 322 322 320 318 315 314 314 313 312 311 311 311 311
298 298 296 295 299 299 302 301 302 304 304 306 306 306 308 310 312 313 313 313 312 310 310 314 317 319 321 320 318 317 316 317 319 319 322 324 324 323 322 321 320 318 316 315 313 313 312 312 311 311 311 311 311 312
298 296 295 295 297 302 300 302 301 303 305 307 307 309 310 313 312 311 310 311 311 312 313 315 317 317 316 315 315 315 316 316 317 319 321 322 320 318 317 316 315 315 314 314 313 313 313 313 313 313 313 313 314 315
297 296 295 297 301 300 301 302 303 304 305 307 310 311 311 308 310 311 313 312 315 315 315 315 314 313 313 313 313 314 316 318 320 319 320 319 317 316 315 314 314 313 313 313 313 314 315 316 316 316 316 316 317 316
297 297 299 298 301 300 302 302 303 305 306 308 310 307 308 310 312 311 311 313 314 312 313 313 313 313 313 312 313 314 315 316 317 316 316 315 315 315 314 315 315 316 315 315 315 316 314 315 316 315 317 317 317 316
298 299 300 300 301 300 301 304 306 306 307 309 306 307 310 311 311 311 311 310 312 310 311 313 311 310 311 312 312 312 313 315 315 316 316 316 315 315 314 313 314 314 314 314 314 312 311 312 313 315 316 317 316 316
298 301 302 303 303 303 304 306 306 307 306 306 307 310 309 311 310 309 308 306 308 308 309 310 311 312 312 313 313 313 313 313 313 313 313 313 313 313 312 311 311 312 313 314 315 313 311 312 312 313 313 313 313 313
299 300 302 299 304 304 305 307 307 307 307 307 310 312 312 311 310 307 306 305 308 308 309 309 308 310 312 313 313 314 313 313 313 313 313 313 313 312 312 311 311 311 312 312 314 313 313 313 313 314 314 314 312 312
305 303 306 304 305 306 307 308 306 307 308 313 313 314 313 311 310 307 305 305 307 307 308 309 310 312 316 313 314 313 314 314 313 313 313 313 313 313 313 313 313 313 313 313 313 312 313 313 314 313 311 309 308 307
305 305 305 303 304 303 304 304 304 306 314 316 315 313 311 311 309 308 306 305 307 306 307 307 311 311 312 312 312 313 313 313 313 314 314 314 314 314 314 313 313 313 314 314 313 313 313 312 311 309 308 307 307 306
303 300 303 304 303 303 306 309 314 315 315 313 312 312 312 312 310 308 307 305 306 307 308 308 307 308 308 309 310 309 308 308 308 308 308 308 308 309 309 309 309 309 309 309 310 310 309 309 308 308 307 307 307 307
302 303 303 308 311 310 313 313 313 312 311 311 312 312 313 311 310 309 308 309 309 308 309 308 307 307 307 308 308 308 308 308 308 309 309 308 307 306 306 306 307 307 307 307 304 305 306 306 305 306 306 306 306 306
313 311 313 313 314 313 313 312 312 311 311 311 311 312 312 311 311 310 310 310 309 309 308 308 308 307 307 308 308 307 307 308 308 308 309 309 308 308 308 307 307 307 307 306 306 305 305 305 306 305 306 307 307 307
312 313 313 313 314 313 312 311 311 311 311 311 311 311 312 312 311 310 309 309 309 309 309 309 309 310 310 309 309 308 308 307 307 307 307 307 308 308 308 308 308 308 308 308 307 308 308 308 307 307 306 306 306 306
312 312 313 314 314 312 312 312 312 312 312 312 312 312 312 313 313 311 310 310 310 310 310 310 310 310 310 310 309 309 308 308 308 308 308 308 309 308 309 308 308 308 307 307 307 307 307 307 308 308 308 308 307 307
313 313 314 314 315 314 313 313 313 313 313 313 312 312 311 313 313 312 310 310 311 310 310 311 311 311 310 310 310 309 308 307 305 305 305 305 305 305 306 306 306 306 306 307 307 307 308 308 308 308 308 308 307 307
Wind_Speed
10 11 13 13 13 15 14 14 14 14 14 15 16 16 16 17 18 17 12 5 6 6 15 17 16 11 8 2 4 10 8 9 8 12 12 11 13 9 12 9 10 15 13 13 11 16 22 4 7 8 8 7 14 17
13 12 13 12 13 13 13 15 15 14 15 15 16 15 16 15 15 14 9 11 11 8 12 26 26 25 18 9 4 3 8 7 6 5 2 4 7 6 10 7 16 4 7 7 3 3 8 7 11 10 10 11 14 16
12 11 12 12 13 14 14 15 15 15 16 16 16 16 16 15 14 12 14 14 16 10 13 17 12 13 11 14 11 5 2 2 8 6 4 4 3 7 2 5 3 4 6 5 5 3 7 2 9 7 11 11 17 14
12 11 10 11 13 12 14 14 14 15 16 17 17 17 16 16 15 14 12 11 12 8 5 3 4 9 8 8 6 14 11 11 10 8 5 5 3 2 6 3 3 3 1 5 9 7 12 19 9 12 12 11 14 14
12 9 10 11 11 13 14 15 16 16 17 18 18 18 17 17 17 15 12 10 8 5 5 9 23 19 10 8 11 11 9 7 8 8 6 6 6 3 4 9 6 2 2 3 8 7 11 10 8 8 11 12 14 14
10 9 9 10 10 12 14 15 17 18 19 19 19 19 19 17 13 6 2 3 5 3 4 4 9 6 8 7 9 9 8 7 7 6 4 6 2 2 4 9 10 12 13 10 5 10 10 8 18 22 16 15 13 13
10 10 9 9 11 13 15 17 19 20 20 20 21 19 15 9 5 4 3 3 2 4 3 5 4 3 4 5 6 6 10 7 7 8 8 7 5 2 6 10 11 7 7 4 3 2 9 7 8 9 6 12 15 16
10 10 9 9 12 13 15 18 21 20 20 20 18 11 6 4 5 7 7 6 4 5 4 4 3 8 2 3 3 5 7 8 9 8 9 9 5 3 9 7 9 3 1 4 5 6 5 3 9 12 13 11 11 11
10 10 9 9 11 13 16 19 22 21 20 15 10 3 1 3 4 3 5 4 5 5 4 3 4 3 5 6 4 4 4 7 6 11 12 9 10 5 9 12 10 13 9 10 7 2 7 7 9 11 13 14 10 9
11 10 10 9 11 13 16 19 21 21 16 8 5 6 3 4 3 5 3 3 4 5 4 5 6 5 7 4 2 4 4 4 8 11 10 12 13 16 16 14 7 9 9 10 10 8 9 11 13 11 14 10 11 10
12 11 10 10 10 12 14 17 18 20 10 4 4 2 6 1 4 4 3 3 4 3 4 5 4 6 6 5 4 3 3 3 8 11 10 11 12 15 19 18 13 10 6 15 9 8 9 15 13 10 9 11 13 12
12 12 11 10 11 12 13 14 15 13 9 8 11 10 5 4 4 4 3 3 5 2 3 2 0 3 3 3 3 2 3 4 6 6 8 15 13 13 14 20 18 14 15 23 8 7 7 4 18 12 12 13 14 14
14 12 12 11 12 13 12 12 12 13 15 4 4 3 3 2 1 4 4 3 2 1 1 1 3 2 2 3 4 3 4 6 7 1 5 10 8 8 12 13 14 15 16 15 14 11 9 13 17 17 15 17 14 13
15 12 13 12 13 12 10 10 11 11 5 4 4 2 4 4 5 3 4 3 1 2 4 4 4 2 3 3 3 4 4 4 3 4 4 8 13 14 15 11 13 19 18 17 14 9 13 14 14 14 17 19 17 16
15 11 12 14 10 9 10 9 6 7 7 3 3 3 8 5 2 5 6 6 6 4 5 5 5 3 4 4 3 4 4 4 2 5 6 8 9 13 13 11 6 5 1 10 12 14 14 18 17 16 18 19 18 19
15 8 15 13 11 11 8 8 11 8 3 3 4 7 2 3 3 2 4 3 4 5 5 1 3 3 3 4 3 6 4 4 3 5 5 6 9 9 10 8 5 9 13 13 18 19 20 19 17 19 19 18 19 20
14 5 4 4 8 5 3 4 5 3 3 4 5 6 6 1 1 3 4 4 4 5 2 2 2 3 5 4 3 3 4 5 6 6 5 10 11 9 4 7 9 13 14 18 19 18 21 23 25 23 16 17 23 26
11 11 6 7 4 6 6 6 4 3 5 6 7 6 6 3 3 1 3 6 4 3 2 2 3 4 3 3 4 4 7 9 12 8 7 7 6 3 9 10 14 17 18 19 20 23 24 23 19 17 24 26 28 25
10 12 9 8 3 4 3 4 4 3 5 6 4 5 5 3 6 8 7 7 3 2 1 2 4 3 2 2 9 11 10 9 8 10 9 7 7 10 13 15 17 19 22 22 22 19 20 21 23 23 24 23 21 20
11 9 7 7 2 4 2 2 2 4 4 3 5 3 6 6 6 4 4 2 1 2 3 3 2 3 4 7 7 8 9 9 8 7 5 5 10 15 15 16 17 23 22 24 23 27 26 23 20 21 20 19 17 17
8 6 6 4 6 4 3 3 3 2 4 4 7 8 4 4 3 2 2 3 1 2 2 2 4 7 10 10 11 10 7 3 4 3 5 7 12 18 18 19 24 24 23 21 19 16 14 11 16 19 19 18 14 13
10 8 4 2 3 2 3 3 4 6 4 5 5 4 2 3 3 2 4 2 2 2 2 3 4 4 4 5 7 10 11 13 15 19 20 21 10 10 14 19 20 16 16 14 14 14 15 13 9 9 11 15 14 12
8 4 4 1 1 1 5 3 2 2 3 4 3 3 1 3 4 6 3 4 3 6 8 5 6 7 6 11 18 19 18 18 12 15 19 22 22 21 21 20 20 19 16 16 19 19 17 13 11 8 7 7 8 13
3 3 2 1 1 2 3 2 1 2 3 2 2 2 3 3 3 3 3 4 6 10 8 9 7 5 10 14 9 11 15 20 21 23 21 22 16 17 20 19 21 20 20 19 17 16 16 16 15 17 16 14 12 12
1 3 1 3 2 2 2 3 2 1 2 1 1 1 2 3 2 3 4 6 8 8 7 11 10 6 8 9 13 18 17 20 17 11 17 23 21 21 20 20 19 20 20 20 16 14 11 12 11 7 1 2 6 6
3 2 1 2 2 2 2 2 2 2 2 0 2 3 2 3 4 4 4 7 5 5 5 5 4 4 5 7 7 8 13 19 21 16 15 22 21 18 13 9 8 6 9 12 13 11 9 2 4 6 6 5 4 5
1 2 2 4 2 1 2 2 3 3 2 2 3 3 3 4 4 2 1 6 3 8 10 12 6 15 14 18 18 18 17 18 18 15 15 12 12 12 13 13 12 10 12 12 10 11 10 7 5 3 2 1 2 2
1 1 2 1 2 3 2 2 1 4 4 3 3 2 2 3 2 3 2 4 9 12 10 5 15 15 15 15 16 17 18 18 18 19 20 18 16 15 14 12 13 14 14 11 7 7 5 5 4 2 1 3 3 4
2 3 2 3 2 2 3 5 4 5 10 9 8 6 4 4 7 10 16 11 3 15 9 11 14 16 17 17 18 18 17 16 15 13 14 10 13 14 13 12 11 11 10 8 9 7 8 7 6 4 5 4 3 4
2 6 1 7 4 4 6 6 10 9 12 12 10 9 8 9 11 11 10 12 7 8 9 13 15 17 17 18 18 19 19 18 17 14 9 10 13 13 12 11 10 10 8 7 7 7 5 2 5 7 6 7 12 15
3 11 15 14 14 10 10 13 15 16 11 10 9 9 10 10 9 9 13 13 14 14 16 16 16 17 17 16 15 15 15 16 15 15 13 13 12 11 10 9 8 8 6 5 6 5 4 5 7 9 10 9 10 11
8 11 11 14 11 9 9 8 10 11 9 7 10 11 8 11 11 11 14 14 14 14 14 16 16 16 14 16 15 15 16 15 13 12 16 13 10 9 8 6 6 6 7 6 7 9 10 13 15 15 15 15 16 17
10 10 10 9 8 6 6 6 7 7 8 9 10 8 8 8 8 7 11 12 12 12 11 13 14 11 9 10 9 10 10 8 11 12 13 12 12 12 11 12 10 10 11 12 14 16 16 20 20 20 19 17 15 14
Wind_Direction
316 322 332 336 334 335 337 339 338 337 337 334 338 341 342 343 346 350 307 331 308 297 289 282 297 296 301 125 353 326 289 217 200 218 235 237 243 247 234 261 232 206 211 225 242 237 247 143 179 233 97 109 86 81
307 308 324 329 334 333 334 332 332 339 335 332 332 333 335 337 338 340 297 332 317 269 275 307 281 265 262 276 263 288 337 344 309 326 301 291 313 18 352 259 181 243 326 274 2 347 21 57 93 122 120 114 104 104
319 299 314 319 321 326 327 326 329 330 329 328 328 327 328 328 329 328 307 310 306 266 272 253 252 255 227 239 250 267 133 273 316 340 326 339 24 347 290 29 311 75 66 294 334 51 351 166 129 134 120 110 114 115
313 310 312 320 321 326 331 330 327 326 326 325 322 322 321 319 318 314 298 301 301 291 280 261 103 235 248 262 249 253 272 284 289 283 312 294 315 322 316 53 324 35 168 248 264 325 347 309 114 109 120 128 117 120
307 301 305 313 321 327 325 325 325 322 320 319 317 316 314 312 310 307 287 274 250 293 313 308 306 268 249 234 241 254 259 268 282 292 289 280 293 230 258 301 269 355 269 308 317 73 210 291 118 146 140 130 112 114
294 293 302 311 318 326 327 327 327 324 320 316 313 310 307 304 300 288 274 223 244 271 299 294 343 256 229 239 249 244 236 229 256 272 293 292 9 313 277 259 239 73 25 4 3 54 69 49 41 347 106 101 104 104
283 287 291 305 316 318 322 325 325 324 323 323 319 312 307 289 231 247 332 314 229 298 277 292 316 219 229 229 223 229 226 246 232 252 232 243 255 264 262 263 291 58 88 21 338 358 77 91 119 183 129 108 116 117
264 279 280 298 312 317 319 321 323 326 325 324 320 317 310 219 222 264 237 236 222 283 259 271 289 229 183 248 247 206 218 209 238 242 245 234 244 234 248 264 280 256 271 276 13 308 207 286 202 161 128 123 115 122
258 269 274 293 307 317 321 322 324 324 325 320 306 254 259 236 213 188 176 194 214 266 295 273 294 1 310 6 0 268 274 247 217 222 236 237 220 202 252 254 271 262 254 244 179 129 245 148 264 149 138 138 138 143
254 259 269 283 302 313 321 325 328 330 329 292 268 209 212 116 161 133 195 197 207 192 229 261 293 289 317 343 46 320 277 259 242 235 225 217 238 226 220 244 244 247 257 279 236 256 172 151 179 163 138 153 150 164
250 250 262 276 293 308 321 329 334 343 347 285 267 56 34 352 211 221 207 228 205 227 214 247 292 321 310 319 332 286 283 254 259 251 236 234 228 226 227 227 199 208 258 282 245 258 243 166 169 166 140 161 153 184
244 243 251 266 282 298 314 326 337 350 347 316 297 297 266 189 237 240 230 211 221 231 201 253 232 311 299 318 269 240 254 264 254 280 256 228 240 227 224 213 209 203 197 231 204 204 252 246 147 161 158 161 161 180
236 235 244 258 275 289 302 317 324 318 318 247 227 261 278 231 295 239 211 222 200 199 160 306 304 290 280 248 245 267 247 248 316 341 272 251 310 209 206 213 197 204 233 234 214 203 229 132 145 157 147 149 160 175
230 234 239 254 270 284 299 314 324 335 284 229 189 247 235 197 249 243 304 321 60 284 324 308 297 208 235 241 242 251 249 277 257 243 246 6 351 343 325 207 192 198 214 221 211 142 126 124 125 145 151 140 149 156
221 231 241 249 264 282 297 304 309 308 272 267 242 242 217 200 186 339 334 298 359 338 334 325 283 254 255 257 234 286 253 243 337 14 9 351 340 322 315 344 350 178 150 105 106 109 114 120 120 128 122 137 140 140
206 235 247 235 246 265 280 298 279 243 252 261 256 260 278 76 339 331 295 328 357 325 322 331 346 307 276 268 201 233 270 58 289 340 338 327 336 296 296 292 14 66 100 102 111 119 119 119 124 116 116 123 122 122
182 231 220 204 212 237 291 278 224 215 269 246 239 232 266 323 66 304 269 292 303 307 353 21 277 267 315 253 256 336 33 327 295 351 348 337 333 313 283 101 72 91 98 101 112 117 113 117 118 117 108 102 101 99
189 194 208 184 200 258 214 223 253 224 242 244 260 349 13 341 224 331 2 29 349 28 16 284 318 241 231 278 321 348 328 327 324 332 328 331 333 345 103 105 107 105 108 108 110 112 118 123 118 116 113 112 109 114
185 177 190 182 188 274 200 217 258 269 250 297 305 272 275 353 35 6 355 22 21 122 237 245 252 249 280 310 334 322 310 309 303 305 297 324 93 90 92 92 105 102 104 113 115 117 120 120 121 121 122 126 133 145
149 151 155 168 182 269 219 234 205 272 284 350 287 288 12 30 354 338 309 294 217 191 204 228 263 352 313 306 301 291 289 284 274 279 284 100 93 93 88 94 98 104 102 102 103 111 114 121 127 135 144 155 169 188
148 152 150 177 212 279 303 281 240 273 321 294 17 30 353 345 322 314 328 338 286 320 291 321 324 313 308 306 300 290 287 334 51 58 93 94 91 96 95 94 99 101 105 113 118 118 116 103 134 158 169 182 183 160
128 151 182 194 264 214 262 247 307 347 295 352 35 357 307 311 330 9 307 329 12 294 277 284 292 329 339 344 3 27 36 57 78 85 90 96 97 98 97 100 103 98 100 113 118 105 86 90 110 176 168 146 144 143
150 198 200 139 251 29 259 336 344 1 306 5 340 301 314 352 357 325 45 343 351 334 346 40 30 9 19 41 54 50 53 65 65 76 87 89 89 87 83 78 86 90 82 70 92 90 88 88 82 69 104 136 155 131
306 309 302 287 156 308 1 357 53 354 358 336 307 16 10 3 2 32 12 328 326 349 30 15 14 61 58 52 55 54 60 71 70 68 77 86 80 80 86 86 89 91 98 99 96 93 94 85 75 63 60 59 65 69
65 330 133 306 345 11 319 340 350 336 305 294 297 113 79 31 44 39 358 333 358 14 29 36 40 37 60 51 56 66 67 82 85 80 81 94 96 90 84 85 92 105 113 104 103 104 98 84 84 92 150 251 86 73
40 46 59 57 300 19 342 316 338 319 294 322 57 105 70 47 44 36 357 331 335 339 339 332 328 353 56 102 105 93 99 90 89 89 101 101 103 107 114 113 112 113 113 112 112 113 114 192 192 107 83 83 51 322
357 3 24 38 3 49 278 247 248 266 310 41 73 58 49 60 44 42 251 308 298 312 323 316 302 67 70 75 79 89 92 96 109 124 141 141 129 119 104 98 98 124 152 157 144 144 148 139 135 124 119 108 73 1
355 346 245 265 207 209 265 246 339 17 359 44 73 59 67 78 144 160 131 291 275 299 296 61 66 60 68 90 102 102 99 97 95 93 91 86 83 83 85 87 78 75 70 66 93 96 111 114 103 90 61 331 1 13
231 206 224 252 185 198 31 38 33 68 77 82 93 88 110 159 166 175 197 211 106 14 5 98 95 87 76 68 73 80 83 86 87 89 88 90 91 91 93 96 100 95 102 74 57 60 56 58 43 32 6 352 342 293
109 180 90 59 67 60 89 107 91 95 94 97 109 110 114 136 160 166 182 194 153 121 80 77 83 80 77 73 68 65 61 61 63 72 75 79 81 81 81 82 85 86 87 99 111 108 96 220 227 222 244 337 10 3
78 101 106 105 104 116 129 129 127 124 119 104 92 94 106 118 123 101 91 87 87 83 82 75 64 59 62 67 77 84 83 73 67 59 64 75 74 70 68 67 70 59 45 28 11 356 360 330 350 346 326 317 317 310
113 108 104 104 111 122 122 120 113 108 104 88 90 99 103 86 78 49 57 88 83 76 59 64 62 61 73 93 85 68 57 55 44 40 35 44 46 19 13 35 36 34 19 353 338 340 355 349 354 357 356 350 354 359
131 111 104 103 101 97 88 83 82 97 104 111 122 113 89 82 60 33 59 59 63 63 60 56 59 77 59 51 84 113 105 101 101 96 82 72 46 29 9 9 11 359 356 352 348 353 358 22 28 31 35 37 39 36